N3DOU-1 Weather Reports


Display with metric or nautical units.
time (UTC)temp
F
wind
direction
speed
MPH
gust
MPH
rain 1hr
in
rain 24hr
in
rain mn
in
humidity
%
barometer
mb
20260504184125 74 205 2.0 8.0 0.00 0.00 0.00 36 1011.8
20260504182624 74 267 2.0 7.0 0.00 0.00 0.00 35 1011.9
20260504174126 73 316 3.0 3.0 0.00 0.00 0.00 35 1012.7
20260504172625 72 185 2.0 5.0 0.00 0.00 0.00 34 1012.7
20260504171125 71 288 3.0 6.0 0.00 0.00 0.00 35 1013.0
20260504151125 67 209 2.0 3.0 0.00 0.00 0.00 45 1014.1
20260504081123 49 224 0.0 0.0 0.00 0.00 0.00 76 1015.4
20260504045624 47 242 0.0 0.0 0.00 0.00 0.00 74 1015.6
20260504044124 46 242 0.0 0.0 0.00 0.00 0.00 73 1015.7
20260504042624 46 250 0.0 0.0 0.00 0.00 0.00 73 1015.4
20260504041123 46 250 0.0 0.0 0.00 0.00 0.00 71 1015.5
20260504035624 45 250 0.0 0.0 0.00 0.00 0.00 72 1015.4
20260504034124 45 250 0.0 0.0 0.00 0.00 0.00 70 1015.1
20260504032623 46 250 0.0 0.0 0.00 0.00 0.00 72 1015.0
20260504031123 46 250 0.0 0.0 0.00 0.00 0.00 68 1014.9
20260504025624 46 250 0.0 0.0 0.00 0.00 0.00 67 1014.9
20260504024124 47 250 0.0 0.0 0.00 0.00 0.00 65 1014.8
20260504022624 47 250 0.0 0.0 0.00 0.00 0.00 65 1014.8
20260504021124 48 250 0.0 0.0 0.00 0.00 0.00 63 1014.9
20260504015623 49 250 0.0 0.0 0.00 0.00 0.00 60 1014.8
20260504014124 50 250 0.0 0.0 0.00 0.00 0.00 57 1014.9
20260504012624 51 250 0.0 0.0 0.00 0.00 0.00 55 1014.7
20260504011124 51 250 0.0 0.0 0.00 0.00 0.00 53 1014.5
20260504005623 52 250 0.0 0.0 0.00 0.00 0.00 51 1014.4
20260504004123 53 250 0.0 0.0 0.00 0.00 0.00 49 1014.3
20260504002624 55 250 0.0 0.0 0.00 0.00 0.00 48 1014.1
20260504001124 56 250 0.0 0.0 0.00 0.00 0.00 46 1014.1
20260503235623 58 250 0.0 0.0 0.00 0.00 0.00 42 1013.8
20260503234124 59 251 0.0 2.0 0.00 0.00 0.00 44 1013.7
20260503232625 59 292 0.0 0.0 0.00 0.00 0.00 39 1013.6
20260503231122 60 292 0.0 0.0 0.00 0.00 0.00 40 1013.7
20260503225624 61 277 0.0 1.0 0.00 0.00 0.00 36 1013.7
20260503224123 61 230 2.0 2.0 0.00 0.00 0.00 33 1013.6
20260503222622 62 286 1.0 2.0 0.00 0.00 0.00 35 1013.6
20260503221125 62 278 2.0 3.0 0.00 0.00 0.00 33 1013.7
20260503215624 63 228 3.0 6.0 0.00 0.00 0.00 34 1013.7
20260503214124 63 287 3.0 7.0 0.00 0.00 0.00 32 1013.6
20260503212625 63 304 2.0 3.0 0.00 0.00 0.00 32 1013.6
20260503211122 62 277 2.0 3.0 0.00 0.00 0.00 37 1013.7
20260503205624 62 321 2.0 3.0 0.00 0.00 0.00 34 1013.7
20260503204124 63 245 2.0 3.0 0.00 0.00 0.00 35 1013.6
20260503202623 62 304 3.0 3.0 0.00 0.00 0.00 37 1013.8
20260503201122 62 281 2.0 3.0 0.00 0.00 0.00 35 1013.9
20260503195623 62 333 3.0 3.0 0.00 0.00 0.00 34 1014.1
20260503194122 61 320 2.0 8.0 0.00 0.00 0.00 38 1014.2
20260503192624 62 346 3.0 8.0 0.00 0.00 0.00 37 1014.3
20260503191124 62 336 3.0 3.0 0.00 0.00 0.00 35 1014.4